Salina, KS

5:07 PM CST on January 16, 2017 (GMT -0600)
Salina Municipal

Weather History for KSLN - August, 2012

Change the Weather History Date:

Saturday, August 18, 2012

  Actual Average Record
Temperature  
Mean Temperature 74 °F 80 °F  
Max Temperature 86 °F 91 °F 110 °F (1936)
Min Temperature 61 °F 68 °F 54 °F (1919)
Degree Days  
Heating Degree Days 0 0  
Month to date heating degree days 0 0  
Since 1 June heating degree days 10 7  
Since 1 July heating degree days 0 0  
Cooling Degree Days 9 15  
Month to date cooling degree days 228 281  
Year to date cooling degree days 1729 1235  
Since 1 June cooling degree days 1407 1107  
Growing Degree Days 23 (Base 50)    
Moisture  
Dew Point 48 °F    
Average Humidity 43    
Maximum Humidity 56    
Minimum Humidity 29    
Precipitation  
Precipitation 0.00 in 0.13 in 1.90 in (1963)
Month to date precipitation 0.22 2.38  
Year to date precipitation 11.85 22.77  
Sea Level Pressure  
Sea Level Pressure 29.94 in    
Wind  
Wind Speed 5 mph (ESE)    
Max Wind Speed 14 mph    
Max Gust Speed 21 mph    
Visibility 10 miles    
Events      
T = Trace of Precipitation, MM = Missing Value Source: NWS Daily Summary

Daily Weather History Graph

Daily Weather History Graph

Search for Another Location

Airport or City:

Trip Planner

Search our weather history database for the weather conditions in past years. The results will help you decide how hot, cold, wet, or windy it might be!

Date:

Astronomy

Aug. 18, 2012 Rise Set
Actual Time 6:47 AM CDT 8:20 PM CDT
Civil Twilight 6:19 AM CDT 8:48 PM CDT
Nautical Twilight 5:45 AM CDT 9:22 PM CDT
Astronomical Twilight 5:09 AM CDT 9:57 PM CDT
Moon 7:55 AM CDT (8/18) 8:38 PM CDT (8/18)
Length of Visible Light 14h 29m
Length of Day
13h 32m
New Moon, 1% of the Moon is Illuminated
Aug 18
New Moon
Aug 24
First Quarter
Aug 31
Full
Sep 8
Last Quarter
Sep 15
New

Hourly Weather History & Observations

Time (CDT) Temp. Dew Point Humidity Pressure Visibility Wind Dir Wind Speed Gust Speed Precip Events Conditions
12:53 AM 69.1 °F 48.9 °F 49% 30.01 in 10.0 mi Calm Calm - N/A   Scattered Clouds
1:53 AM 69.1 °F 46.0 °F 44% 30.01 in 10.0 mi East 4.6 mph - N/A   Mostly Cloudy
2:53 AM 68.0 °F 45.0 °F 43% 30.01 in 10.0 mi East 3.5 mph - N/A   Mostly Cloudy
3:53 AM 68.0 °F 46.0 °F 45% 30.01 in 10.0 mi East 3.5 mph - N/A   Overcast
4:53 AM 68.0 °F 44.6 °F 43% 30.01 in 10.0 mi ESE 6.9 mph - N/A   Mostly Cloudy
5:53 AM 63.0 °F 46.0 °F 54% 29.97 in 10.0 mi ESE 3.5 mph - N/A   Clear
6:53 AM 62.6 °F 46.4 °F 55% 29.99 in 10.0 mi Calm Calm - N/A   Clear
7:53 AM 64.0 °F 48.9 °F 58% 29.97 in 10.0 mi SSE 3.5 mph - N/A   Clear
8:53 AM 66.9 °F 46.9 °F 49% 29.97 in 10.0 mi SSE 4.6 mph - N/A   Clear
9:53 AM 71.1 °F 48.0 °F 44% 29.96 in 10.0 mi SE 4.6 mph - N/A   Clear
10:53 AM 73.9 °F 48.9 °F 41% 29.96 in 10.0 mi South 4.6 mph - N/A   Partly Cloudy
11:53 AM 79.0 °F 50.0 °F 36% 29.94 in 10.0 mi South 9.2 mph - N/A   Clear
12:53 PM 82.0 °F 50.0 °F 33% 29.92 in 10.0 mi South 8.1 mph - N/A   Clear
1:53 PM 81.0 °F 48.9 °F 33% 29.91 in 10.0 mi South 3.5 mph - N/A   Clear
2:53 PM 84.0 °F 51.1 °F 32% 29.88 in 10.0 mi WSW 4.6 mph - N/A   Mostly Cloudy
3:53 PM 84.0 °F 48.9 °F 29% 29.87 in 10.0 mi Calm Calm - N/A   Mostly Cloudy
4:53 PM 82.9 °F 52.0 °F 34% 29.85 in 10.0 mi SSE 6.9 mph - N/A   Mostly Cloudy
5:53 PM 84.9 °F 50.0 °F 30% 29.86 in 10.0 mi Calm Calm - N/A   Scattered Clouds
6:53 PM 84.0 °F 52.0 °F 33% 29.85 in 10.0 mi North 5.8 mph - N/A   Clear
7:53 PM 81.0 °F 51.1 °F 35% 29.86 in 10.0 mi NNE 6.9 mph - N/A   Clear
8:53 PM 77.0 °F 46.9 °F 34% 29.88 in 10.0 mi ENE 9.2 mph - N/A   Clear
9:53 PM 73.0 °F 46.9 °F 39% 29.91 in 10.0 mi East 8.1 mph - N/A   Clear
10:53 PM 71.1 °F 46.0 °F 41% 29.92 in 10.0 mi ENE 9.2 mph - N/A   Clear
11:53 PM 68.0 °F 46.9 °F 47% 29.96 in 10.0 mi NNE 6.9 mph - N/A   Scattered Clouds